Project,Study,Ord_Occ,Event_Num,Cast_ID,Date_Time_UTC,Date_Time_PST,Lat_Dec,Lon_Dec,Sta_ID,Line,Sta,Depth,Pressure,PrQ,Temp1,Temp1Q,Temp2,Temp2Q,TempAve,Salt1,Salt1Q,Salt1_Corr,Salt2,Salt2Q,Salt2_Corr,SaltAve_Corr,Ox1,Ox1Q,Ox1_CruiseCorr,Ox1_StaCorr,Ox2,Ox2Q,Ox2_CruiseCorr,Ox2_StaCorr,OxAve_StaCorr,Ox1uM,Ox1uM_CruiseCorr,Ox1uM_StaCorr,Ox2uM,Ox2uM_CruiseCorr,Ox2uM_StaCorr,OxAveuM_StaCorr,FluorV,FluorQ,EstChl_CruiseCorr,EstChl_StaCorr,ISUSV,ISUSQ,EstNO3_CruiseCorr,EstNO3_StaCorr,SigThetaTS1,SigThetaTS1Q,SigThetaTS2,SigThetaTS2Q,BAT,XMiss,TransQ,pH,pHQ,SPAR,SPARQ,PAR,PARQ,PoT1,PoT2,DynHt,SVA,OxSat1,OxSat2,BTL_Depth,BTL_Temp,SaltB,OxB,OxBuM,Chl-a,Phaeo,NO3,NO2,NH4,PO4,SIL
CalCOFI,2101RL,062,,2101_062u,31-Jan-2021 11:47:58,31-Jan-2021 03:47:58,33.81798,-121.83264,080.0 070.0,080.0,070.0,516.000,520.353,,5.4696,,5.4708,,5.4702,,,,34.2472,,34.2492,,,,,,0.3189,,0.3367,0.4020,1.6734,,,,13.869,146.5279,17.5950,,0.0328,,,, ,, , ,,,27.0283,,0.7249,83.4261,,,,3.6947E+00,,1.0000E-12,,,5.4276,,,,,516,,34.2498,0.355,15.48,,,,,,,
CalCOFI,2101RL,062,,2101_062u,31-Jan-2021 11:47:59,31-Jan-2021 03:47:59,33.81798,-121.83264,080.0 070.0,080.0,070.0,515.000,519.344,,5.4700,,5.4728,,5.4714,,,,34.2466,,34.2486,,,,,,0.3224,,0.3404,0.4057,1.6736,,,,14.018,146.3822,17.7533,,0.0327,,,, ,, , ,,,27.0275,,0.7250,83.4226,,,,3.6947E+00,,1.0000E-12,,,5.4297,,,,,,,,,,,,,,,,
CalCOFI,2101RL,062,,2101_062u,31-Jan-2021 11:48:00,31-Jan-2021 03:48:00,33.81798,-121.83264,080.0 070.0,080.0,070.0,514.000,518.334,,5.4707,,5.4728,,5.4718,,,,34.2465,,34.2485,,,,,,0.3201,,0.3380,0.4033,1.6722,,,,13.921,146.3655,17.6503,,0.0327,,,, ,, , ,,,27.0274,,0.7255,83.4129,,,,3.6947E+00,,1.0000E-12,,,5.4298,,,,,,,,,,,,,,,,
CalCOFI,2101RL,062,,2101_062u,31-Jan-2021 11:48:00,31-Jan-2021 03:48:00,33.81798,-121.83264,080.0 070.0,080.0,070.0,513.000,517.324,,5.4710,,5.4734,,5.4722,,,,34.2462,,34.2482,,,,,,0.3201,,0.3380,0.4033,1.6724,,,,13.919,146.3767,17.6481,,0.0328,,,, ,, , ,,,27.0271,,0.7252,83.4180,,,,3.6947E+00,,1.0000E-12,,,5.4304,,,,,,,,,,,,,,,,
CalCOFI,2101RL,062,,2101_062u,31-Jan-2021 11:48:02,31-Jan-2021 03:48:02,33.81798,-121.83264,080.0 070.0,080.0,070.0,512.000,516.315,,5.4716,,5.4738,,5.4727,,,,34.2457,,34.2477,,,,,,0.3224,,0.3404,0.4057,1.6714,,,,14.017,146.1876,17.7523,,0.0322,,,, ,, , ,,,27.0266,,0.7254,83.4135,,,,3.6947E+00,,1.0000E-12,,,5.4310,,,,,,,,,,,,,,,,
CalCOFI,2101RL,062,,2101_062u,31-Jan-2021 11:48:04,31-Jan-2021 03:48:04,33.81798,-121.83264,080.0 070.0,080.0,070.0,511.000,515.305,,5.4722,,5.4748,,5.4735,,,,34.2427,,34.2447,,,,,,0.3339,,0.3526,0.4179,1.6775,,,,14.521,146.1898,18.2878,,0.0323,,,, ,, , ,,,27.0241,,0.7251,83.4219,,,,3.6947E+00,,1.0000E-12,,,5.4320,,,,,,,,,,,,,,,,
CalCOFI,2101RL,062,,2101_062u,31-Jan-2021 11:48:05,31-Jan-2021 03:48:05,33.81798,-121.83264,080.0 070.0,080.0,070.0,510.000,514.295,,5.4726,,5.4770,,5.4748,,,,34.2422,,34.2442,,,,,,0.3326,,0.3513,0.4165,1.6772,,,,14.462,146.2176,18.2251,,0.0330,,,, ,, , ,,,27.0234,,0.7253,83.4165,,,,3.6947E+00,,1.0000E-12,,,5.4343,,,,,,,,,,,,,,,,
CalCOFI,2101RL,062,,2101_062u,31-Jan-2021 11:48:06,31-Jan-2021 03:48:06,33.81798,-121.83264,080.0 070.0,080.0,070.0,509.000,513.286,,5.4747,,5.4851,,5.4799,,,,34.2391,,34.2411,,,,,,0.3334,,0.3521,0.4174,1.6773,,,,14.498,146.1943,18.2634,,0.0327,,,, ,, , ,,,27.0201,,0.7254,83.4144,,,,3.6947E+00,,1.0000E-12,,,5.4425,,,,,,,,,,,,,,,,
CalCOFI,2101RL,062,,2101_062u,31-Jan-2021 11:48:07,31-Jan-2021 03:48:07,33.81798,-121.83264,080.0 070.0,080.0,070.0,508.000,512.276,,5.4791,,5.4862,,5.4827,,,,34.2378,,34.2398,,,,,,0.3354,,0.3542,0.4195,1.6780,,,,14.583,146.1643,18.3537,,0.0325,,,, ,, , ,,,27.0189,,0.7255,83.4119,,,,3.6947E+00,,1.0000E-12,,,5.4436,,,,,,,,,,,,,,,,
CalCOFI,2101RL,062,,2101_062u,31-Jan-2021 11:48:09,31-Jan-2021 03:48:09,33.81797,-121.83264,080.0 070.0,080.0,070.0,507.000,511.266,,5.4821,,5.4830,,5.4826,,,,34.2388,,34.2408,,,,,,0.3369,,0.3558,0.4211,1.6798,,,,14.649,146.2488,18.4238,,0.0317,,,, ,, , ,,,27.0201,,0.7256,83.4096,,,,3.6947E+00,,1.0000E-12,,,5.4405,,,,,,,,,,,,,,,,
CalCOFI,2101RL,062,,2101_062u,31-Jan-2021 11:48:10,31-Jan-2021 03:48:10,33.81796,-121.83264,080.0 070.0,080.0,070.0,506.000,510.257,,5.4830,,5.4824,,5.4827,,,,34.2352,,34.2372,,,,,,0.3465,,0.3660,0.4313,1.6901,,,,15.069,146.7125,18.8701,,0.0330,,,, ,, , ,,,27.0173,,0.7250,83.4224,,,,3.6947E+00,,1.0000E-12,,,5.4400,,,,,,,,,,,,,,,,
CalCOFI,2101RL,062,,2101_062u,31-Jan-2021 11:48:11,31-Jan-2021 03:48:11,33.81796,-121.83264,080.0 070.0,080.0,070.0,505.000,509.247,,5.4827,,5.4836,,5.4832,,,,34.2330,,34.2350,,,,,,0.3508,,0.3706,0.4358,1.6954,,,,15.256,146.9794,19.0688,,0.0327,,,, ,, , ,,,27.0153,,0.7254,83.4147,,,,3.6947E+00,,1.0000E-12,,,5.4413,,,,,,,,,,,,,,,,
CalCOFI,2101RL,062,,2101_062u,31-Jan-2021 11:48:12,31-Jan-2021 03:48:12,33.81796,-121.83264,080.0 070.0,080.0,070.0,504.000,508.237,,5.4832,,5.4861,,5.4847,,,,34.2305,,34.2325,,,,,,0.3526,,0.3725,0.4377,1.6998,,,,15.332,147.2896,19.1495,,0.0330,,,, ,, , ,,,27.0131,,0.7255,83.4121,,,,3.6947E+00,,1.0000E-12,,,5.4439,,,,,,,,,,,,,,,,
CalCOFI,2101RL,062,,2101_062u,31-Jan-2021 11:48:13,31-Jan-2021 03:48:13,33.81796,-121.83264,080.0 070.0,080.0,070.0,503.000,507.228,,5.4849,,5.4917,,5.4883,,,,34.2294,,34.2314,,,,,,0.3583,,0.3786,0.4438,1.7068,,,,15.580,147.6366,19.4131,,0.0324,,,, ,, , ,,,27.0115,,0.7257,83.4071,,,,3.6947E+00,,1.0000E-12,,,5.4496,,,,,,,,,,,,,,,,
CalCOFI,2101RL,062,,2101_062u,31-Jan-2021 11:48:14,31-Jan-2021 03:48:14,33.81796,-121.83264,080.0 070.0,080.0,070.0,502.000,506.218,,5.4875,,5.4948,,5.4912,,,,34.2283,,34.2303,,,,,,0.3578,,0.3780,0.4433,1.7088,,,,15.557,147.8379,19.3886,,0.0327,,,, ,, , ,,,27.0102,,0.7258,83.4059,,,,3.6947E+00,,1.0000E-12,,,5.4528,,,,,,,,,,,,,,,,
CalCOFI,2101RL,062,,2101_062u,31-Jan-2021 11:48:15,31-Jan-2021 03:48:15,33.81796,-121.83264,080.0 070.0,080.0,070.0,501.000,505.208,,5.4892,,5.4937,,5.4915,,,,34.2274,,34.2294,,,,,,0.3618,,0.3823,0.4475,1.7144,,,,15.733,148.1437,19.5756,,0.0318,,,, ,, , ,,,27.0097,,0.7258,83.4059,,,,3.6947E+00,,1.0000E-12,,,5.4517,,,,,,,,,,,,,,,,
CalCOFI,2101RL,062,,2101_062u,31-Jan-2021 11:48:16,31-Jan-2021 03:48:16,33.81797,-121.83264,080.0 070.0,080.0,070.0,500.000,504.199,,5.4902,,5.4929,,5.4916,,,,34.2267,,34.2287,,,,,,0.3626,,0.3831,0.4484,1.7222,,,,15.769,148.7931,19.6139,,0.0324,,,, ,, , ,,,27.0092,,0.7258,83.4059,,,,3.6947E+00,,1.0000E-12,,,5.4510,,,,,,,,,,,,,,,,
CalCOFI,2101RL,062,,2101_062u,31-Jan-2021 11:48:17,31-Jan-2021 03:48:17,33.81798,-121.83264,080.0 070.0,080.0,070.0,499.000,503.189,,5.4909,,5.4937,,5.4923,,,,34.2270,,34.2290,,,,,,0.3622,,0.3827,0.4479,1.7353,,,,15.749,149.9740,19.5926,,0.0318,,,, ,, , ,,,27.0094,,0.7253,83.4164,,,,3.6947E+00,,1.0000E-12,,,5.4519,,,,,,,,,,,,,,,,
CalCOFI,2101RL,062,,2101_062u,31-Jan-2021 11:48:18,31-Jan-2021 03:48:18,33.81798,-121.83264,080.0 070.0,080.0,070.0,498.000,502.180,,5.4914,,5.4954,,5.4934,,,,34.2264,,34.2284,,,,,,0.3723,,0.3934,0.4586,1.7582,,,,16.188,151.5331,20.0591,,0.0327,,,, ,, , ,,,27.0086,,0.7258,83.4058,,,,3.6947E+00,,1.0000E-12,,,5.4537,,,,,,,,,,,,,,,,
CalCOFI,2101RL,062,,2101_062u,31-Jan-2021 11:48:19,31-Jan-2021 03:48:19,33.81796,-121.83262,080.0 070.0,080.0,070.0,497.000,501.170,,5.4940,,5.5017,,5.4979,,,,34.2234,,34.2254,,,,,,0.3672,,0.3880,0.4532,1.7719,,,,15.967,152.9754,19.8243,,0.0326,,,, ,, , ,,,27.0055,,0.7258,83.4059,,,,3.4169E+00,,1.0000E-12,,,5.4600,,,,,,,,,,,,,,,,
CalCOFI,2101RL,062,,2101_062u,31-Jan-2021 11:48:20,31-Jan-2021 03:48:20,33.81796,-121.83262,080.0 070.0,080.0,070.0,496.000,500.160,,5.4976,,5.5027,,5.5002,,,,34.2229,,34.2249,,,,,,0.3724,,0.3935,0.4588,1.7872,,,,16.193,154.0818,20.0644,,0.0321,,,, ,, , ,,,27.0049,,0.7258,83.4059,,,,3.6969E+00,,1.0000E-12,,,5.4611,,,,,,,,,,,,,,,,
CalCOFI,2101RL,062,,2101_062u,31-Jan-2021 11:48:21,31-Jan-2021 03:48:21,33.81796,-121.83262,080.0 070.0,080.0,070.0,495.000,499.151,,5.4995,,5.5038,,5.5017,,,,34.2224,,34.2244,,,,,,0.3712,,0.3923,0.4575,1.7998,,,,16.143,155.2550,20.0113,,0.0333,,,, ,, , ,,,27.0044,,0.7258,83.4059,,,,3.6947E+00,,1.0000E-12,,,5.4624,,,,,,,,,,,,,,,,
CalCOFI,2101RL,062,,2101_062u,31-Jan-2021 11:48:21,31-Jan-2021 03:48:21,33.81796,-121.83262,080.0 070.0,080.0,070.0,494.000,498.141,,5.5009,,5.5049,,5.5029,,,,34.2221,,34.2241,,,,,,0.3740,,0.3952,0.4604,1.8171,,,,16.263,156.6539,20.1388,,0.0322,,,, ,, , ,,,27.0041,,0.7258,83.4059,,,,3.6947E+00,,1.0000E-12,,,5.4635,,,,,,,,,,,,,,,,
CalCOFI,2101RL,062,,2101_062u,31-Jan-2021 11:48:22,31-Jan-2021 03:48:22,33.81796,-121.83262,080.0 070.0,080.0,070.0,493.000,497.132,,5.5020,,5.5055,,5.5038,,,,34.2213,,34.2233,,,,,,0.3804,,0.4020,0.4672,1.8434,,,,16.544,158.6800,20.4374,,0.0321,,,, ,, , ,,,27.0034,,0.7258,83.4059,,,,3.6947E+00,,1.0000E-12,,,5.4642,,,,,,,,,,,,,,,,
CalCOFI,2101RL,062,,2101_062u,31-Jan-2021 11:48:23,31-Jan-2021 03:48:23,33.81796,-121.83262,080.0 070.0,080.0,070.0,492.000,496.122,,5.5023,,5.5046,,5.5035,,,,34.2209,,34.2229,,,,,,0.3754,,0.3967,0.4619,1.8767,,,,16.326,161.8537,20.2057,,0.0320,,,, ,, , ,,,27.0031,,0.7258,83.4059,,,,3.6947E+00,,1.0000E-12,,,5.4634,,,,,,,,,,,,,,,,
CalCOFI,2101RL,062,,2101_062u,31-Jan-2021 11:48:24,31-Jan-2021 03:48:24,33.81796,-121.83262,080.0 070.0,080.0,070.0,491.000,495.112,,5.5022,,5.5047,,5.5035,,,,34.2192,,34.2212,,,,,,0.3799,,0.4015,0.4667,1.9281,,,,16.521,166.1906,20.4129,,0.0323,,,, ,, , ,,,27.0018,,0.7258,83.4059,,,,3.5575E+00,,1.0000E-12,,,5.4636,,,,,,,,,,,,,,,,
CalCOFI,2101RL,062,,2101_062u,31-Jan-2021 11:48:26,31-Jan-2021 03:48:26,33.81797,-121.83262,080.0 070.0,080.0,070.0,490.000,494.103,,5.5033,,5.5066,,5.5050,,,,34.2183,,34.2203,,,,,,0.3825,,0.4043,0.4695,1.9872,,,,16.632,171.2914,20.5309,,0.0321,,,, ,, , ,,,27.0008,,0.7257,83.4080,,,,3.6923E+00,,1.0000E-12,,,5.4655,,,,,,,,,,,,,,,,
CalCOFI,2101RL,062,,2101_062u,31-Jan-2021 11:48:27,31-Jan-2021 03:48:27,33.81798,-121.83262,080.0 070.0,080.0,070.0,489.000,493.093,,5.5055,,5.5087,,5.5071,,,,34.2176,,34.2196,,,,,,0.3851,,0.4070,0.4722,2.0502,,,,16.747,176.7491,20.6531,,0.0330,,,, ,, , ,,,27.0000,,0.7258,83.4059,,,,3.6947E+00,,1.0000E-12,,,5.4677,,,,,,,,,,,,,,,,
CalCOFI,2101RL,062,,2101_062u,31-Jan-2021 11:48:29,31-Jan-2021 03:48:29,33.81797,-121.83261,080.0 070.0,080.0,070.0,488.000,492.084,,5.5067,,5.5089,,5.5078,,,,34.2173,,34.2193,,,,,,0.3877,,0.4098,0.4750,2.0882,,,,16.861,179.9796,20.7742,,0.0330,,,, ,, , ,,,26.9997,,0.7258,83.4059,,,,3.6947E+00,,1.0000E-12,,,5.4680,,,,,,,,,,,,,,,,
CalCOFI,2101RL,062,,2101_062u,31-Jan-2021 11:48:30,31-Jan-2021 03:48:30,33.81796,-121.83260,080.0 070.0,080.0,070.0,487.000,491.074,,5.5073,,5.5090,,5.5082,,,,34.2151,,34.2171,,,,,,0.3930,,0.4154,0.4806,2.1048,,,,17.088,181.2072,21.0154,,0.0325,,,, ,, , ,,,26.9980,,0.7258,83.4059,,,,3.6947E+00,,1.0000E-12,,,5.4682,,,,,,,,,,,,,,,,
CalCOFI,2101RL,062,,2101_062u,31-Jan-2021 11:48:30,31-Jan-2021 03:48:30,33.81796,-121.83260,080.0 070.0,080.0,070.0,486.000,490.065,,5.5078,,5.5100,,5.5089,,,,34.2122,,34.2142,,,,,,0.4057,,0.4289,0.4941,2.1204,,,,17.644,181.9879,21.6062,,0.0336,,,, ,, , ,,,26.9956,,0.7258,83.4059,,,,3.6947E+00,,1.0000E-12,,,5.4693,,,,,,,,,,,,,,,,
CalCOFI,2101RL,062,,2101_062u,31-Jan-2021 11:48:31,31-Jan-2021 03:48:31,33.81796,-121.83260,080.0 070.0,080.0,070.0,485.000,489.055,,5.5086,,5.5112,,5.5099,,,,34.2103,,34.2123,,,,,,0.4049,,0.4280,0.4932,2.1268,,,,17.606,182.5972,21.5658,,0.0324,,,, ,, , ,,,26.9939,,0.7258,83.4059,,,,3.6947E+00,,1.0000E-12,,,5.4706,,,,,,,,,,,,,,,,
CalCOFI,2101RL,062,,2101_062u,31-Jan-2021 11:48:31,31-Jan-2021 03:48:31,33.81796,-121.83260,080.0 070.0,080.0,070.0,484.000,488.045,,5.5093,,5.5115,,5.5104,,,,34.2085,,34.2105,,,,,,0.4032,,0.4262,0.4914,2.1320,,,,17.534,183.1355,21.4893,,0.0326,,,, ,, , ,,,26.9924,,0.7258,83.4059,,,,3.6947E+00,,1.0000E-12,,,5.4710,,,,,,,,,,,,,,,,
CalCOFI,2101RL,062,,2101_062u,31-Jan-2021 11:48:32,31-Jan-2021 03:48:32,33.81795,-121.83260,080.0 070.0,080.0,070.0,483.000,487.036,,5.5093,,5.5096,,5.5095,,,,34.2066,,34.2086,,,,,,0.4039,,0.4270,0.4922,2.1385,,,,17.566,183.6692,21.5233,,0.0330,,,, ,, , ,,,26.9911,,0.7258,83.4059,,,,3.6947E+00,,1.0000E-12,,,5.4691,,,,,,,,,,,,,,,,
CalCOFI,2101RL,062,,2101_062u,31-Jan-2021 11:48:33,31-Jan-2021 03:48:33,33.81794,-121.83260,080.0 070.0,080.0,070.0,482.000,486.026,,5.5088,,5.5082,,5.5085,,,,34.2054,,34.2074,,,,,,0.4086,,0.4320,0.4972,2.1467,,,,17.769,184.1774,21.7390,,0.0326,,,, ,, , ,,,26.9903,,0.7258,83.4059,,,,3.6947E+00,,1.0000E-12,,,5.4678,,,,,,,,,,,,,,,,
CalCOFI,2101RL,062,,2101_062u,31-Jan-2021 11:48:34,31-Jan-2021 03:48:34,33.81794,-121.83260,080.0 070.0,080.0,070.0,481.000,485.017,,5.5081,,5.5079,,5.5080,,,,34.2046,,34.2066,,,,,,0.4063,,0.4295,0.4947,2.1510,,,,17.670,184.6645,21.6338,,0.0333,,,, ,, , ,,,26.9897,,0.7258,83.4059,,,,3.6947E+00,,1.0000E-12,,,5.4676,,,,,,,,,,,,,,,,
CalCOFI,2101RL,062,,2101_062u,31-Jan-2021 11:48:35,31-Jan-2021 03:48:35,33.81794,-121.83259,080.0 070.0,080.0,070.0,480.000,484.007,,5.5075,,5.5086,,5.5081,,,,34.2061,,34.2081,,,,,,0.4147,,0.4385,0.5036,2.1624,,,,18.032,185.2839,22.0185,,0.0321,,,, ,, , ,,,26.9908,,0.7258,83.4059,,,,3.6947E+00,,1.0000E-12,,,5.4684,,,,,,,,,,,,,,,,
CalCOFI,2101RL,062,,2101_062u,31-Jan-2021 11:48:37,31-Jan-2021 03:48:37,33.81794,-121.83258,080.0 070.0,080.0,070.0,479.000,482.998,,5.5073,,5.5096,,5.5085,,,,34.2031,,34.2051,,,,,,0.4164,,0.4403,0.5054,2.1665,,,,18.108,185.5641,22.0992,,0.0335,,,, ,, , ,,,26.9883,,0.7258,83.4059,,,,3.6947E+00,,1.0000E-12,,,5.4695,,,,,,,,,,,,,,,,
CalCOFI,2101RL,062,,2101_062u,31-Jan-2021 11:48:38,31-Jan-2021 03:48:38,33.81794,-121.83257,080.0 070.0,080.0,070.0,478.000,481.988,,5.5081,,5.5110,,5.5096,,,,34.2022,,34.2042,,,,,,0.4294,,0.4541,0.5192,2.1604,,,,18.671,184.4143,22.6974,,0.0316,,,, ,, , ,,,26.9874,,0.7258,83.4059,,,,3.6947E+00,,1.0000E-12,,,5.4710,,,,,,,,,,,,,,,,
CalCOFI,2101RL,062,,2101_062u,31-Jan-2021 11:48:39,31-Jan-2021 03:48:39,33.81794,-121.83256,080.0 070.0,080.0,070.0,477.000,480.979,,5.5102,,5.5166,,5.5134,,,,34.2008,,34.2028,,,,,,0.4271,,0.4516,0.5168,2.1453,,,,18.571,183.1844,22.5912,,0.0317,,,, ,, , ,,,26.9856,,0.7258,83.4059,,,,3.6947E+00,,1.0000E-12,,,5.4767,,,,,,,,,,,,,,,,
CalCOFI,2101RL,062,,2101_062u,31-Jan-2021 11:48:40,31-Jan-2021 03:48:40,33.81794,-121.83256,080.0 070.0,080.0,070.0,476.000,479.969,,5.5150,,5.5232,,5.5191,,,,34.1990,,34.2010,,,,,,0.4253,,0.4497,0.5149,2.1314,,,,18.493,182.0357,22.5083,,0.0324,,,, ,, , ,,,26.9834,,0.7258,83.4059,,,,3.6947E+00,,1.0000E-12,,,5.4833,,,,,,,,,,,,,,,,
CalCOFI,2101RL,062,,2101_062u,31-Jan-2021 11:48:41,31-Jan-2021 03:48:41,33.81794,-121.83256,080.0 070.0,080.0,070.0,475.000,478.960,,5.5195,,5.5304,,5.5250,,,,34.1973,,34.1993,,,,,,0.4352,,0.4602,0.5254,2.1243,,,,18.926,180.9448,22.9684,,0.0329,,,, ,, , ,,,26.9812,,0.7258,83.4059,,,,3.4233E+00,,1.0000E-12,,,5.4906,,,,,,,,,,,,,,,,
CalCOFI,2101RL,062,,2101_062u,31-Jan-2021 11:48:41,31-Jan-2021 03:48:41,33.81794,-121.83256,080.0 070.0,080.0,070.0,474.000,477.950,,5.5267,,5.5406,,5.5337,,,,34.1970,,34.1990,,,,,,0.4428,,0.4683,0.5334,2.1153,,,,19.256,179.7905,23.3190,,0.0323,,,, ,, , ,,,26.9797,,0.7258,83.4059,,,,3.6940E+00,,1.0000E-12,,,5.5008,,,,,,,,,,,,,,,,
CalCOFI,2101RL,062,,2101_062u,31-Jan-2021 11:48:42,31-Jan-2021 03:48:42,33.81795,-121.83256,080.0 070.0,080.0,070.0,473.000,476.941,,5.5351,,5.5563,,5.5457,,,,34.1964,,34.1984,,,,,,0.4387,,0.4639,0.5291,2.1016,,,,19.077,178.7786,23.1288,,0.0308,,,, ,, , ,,,26.9774,,0.7258,83.4059,,,,3.6947E+00,,1.0000E-12,,,5.5166,,,,,,,,,,,,,,,,
CalCOFI,2101RL,062,,2101_062u,31-Jan-2021 11:48:42,31-Jan-2021 03:48:42,33.81796,-121.83256,080.0 070.0,080.0,070.0,472.000,475.931,,5.5433,,5.5624,,5.5529,,,,34.1969,,34.1989,,,,,,0.4350,,0.4600,0.5252,2.0871,,,,18.917,177.6710,22.9588,,0.0329,,,, ,, , ,,,26.9770,,0.7258,83.4059,,,,3.6947E+00,,1.0000E-12,,,5.5227,,,,,,,,,,,,,,,,
CalCOFI,2101RL,062,,2101_062u,31-Jan-2021 11:48:43,31-Jan-2021 03:48:43,33.81796,-121.83256,080.0 070.0,080.0,070.0,471.000,474.922,,5.5494,,5.5654,,5.5574,,,,34.1968,,34.1988,,,,,,0.4409,,0.4663,0.5314,2.0772,,,,19.176,176.5201,23.2340,,0.0326,,,, ,, , ,,,26.9765,,0.7258,83.4059,,,,3.6947E+00,,1.0000E-12,,,5.5259,,,,,,,,,,,,,,,,
CalCOFI,2101RL,062,,2101_062u,31-Jan-2021 11:48:45,31-Jan-2021 03:48:45,33.81796,-121.83256,080.0 070.0,080.0,070.0,470.000,473.912,,5.5573,,5.5703,,5.5638,,,,34.1972,,34.1992,,,,,,0.4358,,0.4609,0.5260,2.0564,,,,18.950,174.9188,22.9939,,0.0326,,,, ,, , ,,,26.9762,,0.7258,83.4059,,,,3.6947E+00,,1.0000E-12,,,5.5308,,,,,,,,,,,,,,,,
CalCOFI,2101RL,062,,2101_062u,31-Jan-2021 11:48:47,31-Jan-2021 03:48:47,33.81796,-121.83256,080.0 070.0,080.0,070.0,469.000,472.903,,5.5624,,5.5792,,5.5708,,,,34.1974,,34.1994,,,,,,0.4424,,0.4679,0.5330,2.0436,,,,19.237,173.4787,23.2988,,0.0317,,,, ,, , ,,,26.9753,,0.7258,83.4059,,,,3.6947E+00,,1.0000E-12,,,5.5398,,,,,,,,,,,,,,,,
CalCOFI,2101RL,062,,2101_062u,31-Jan-2021 11:48:48,31-Jan-2021 03:48:48,33.81796,-121.83256,080.0 070.0,080.0,070.0,468.000,471.893,,5.5666,,5.5868,,5.5767,,,,34.1976,,34.1996,,,,,,0.4453,,0.4710,0.5361,2.0357,,,,19.366,172.6469,23.4359,,0.0332,,,, ,, , ,,,26.9746,,0.7258,83.4059,,,,3.6947E+00,,1.0000E-12,,,5.5474,,,,,,,,,,,,,,,,
CalCOFI,2101RL,062,,2101_062u,31-Jan-2021 11:48:49,31-Jan-2021 03:48:49,33.81796,-121.83256,080.0 070.0,080.0,070.0,467.000,470.884,,5.5823,,5.6119,,5.5971,,,,34.1967,,34.1987,,,,,,0.4480,,0.4738,0.5390,2.0284,,,,19.483,171.8718,23.5602,,0.0318,,,, ,, , ,,,26.9708,,0.7258,83.4059,,,,3.6947E+00,,1.0000E-12,,,5.5725,,,,,,,,,,,,,,,,
CalCOFI,2101RL,062,,2101_062u,31-Jan-2021 11:48:49,31-Jan-2021 03:48:49,33.81796,-121.83256,080.0 070.0,080.0,070.0,466.000,469.874,,5.5916,,5.6167,,5.6042,,,,34.1955,,34.1975,,,,,,0.4533,,0.4794,0.5446,2.0256,,,,19.714,171.3814,23.8057,,0.0333,,,, ,, , ,,,26.9693,,0.7258,83.4059,,,,3.6947E+00,,1.0000E-12,,,5.5774,,,,,,,,,,,,,,,,
CalCOFI,2101RL,062,,2101_062u,31-Jan-2021 11:48:50,31-Jan-2021 03:48:50,33.81796,-121.83256,080.0 070.0,080.0,070.0,465.000,468.865,,5.6000,,5.6197,,5.6099,,,,34.1940,,34.1960,,,,,,0.4512,,0.4772,0.5424,2.0182,,,,19.620,170.8221,23.7058,,0.0321,,,, ,, , ,,,26.9677,,0.7258,83.4059,,,,3.6947E+00,,1.0000E-12,,,5.5804,,,,,,,,,,,,,,,,
CalCOFI,2101RL,062,,2101_062u,31-Jan-2021 11:48:50,31-Jan-2021 03:48:50,33.81796,-121.83256,080.0 070.0,080.0,070.0,464.000,467.856,,5.6124,,5.6216,,5.6170,,,,34.1927,,34.1947,,,,,,0.4551,,0.4814,0.5465,2.0133,,,,19.793,170.2149,23.8896,,0.0330,,,, ,, , ,,,26.9664,,0.7258,83.4059,,,,3.3024E+00,,1.0000E-12,,,5.5825,,,,,,,,,,,,,,,,
CalCOFI,2101RL,062,,2101_062u,31-Jan-2021 11:48:51,31-Jan-2021 03:48:51,33.81796,-121.83256,080.0 070.0,080.0,070.0,463.000,466.846,,5.6177,,5.6246,,5.6212,,,,34.1913,,34.1933,,,,,,0.4682,,0.4953,0.5604,2.0127,,,,20.359,169.5422,24.4910,,0.0317,,,, ,, , ,,,26.9650,,0.7258,83.4059,,,,3.5684E+00,,1.0000E-12,,,5.5855,,,,,,,,,,,,,,,,
CalCOFI,2101RL,062,,2101_062u,31-Jan-2021 11:48:52,31-Jan-2021 03:48:52,33.81796,-121.83256,080.0 070.0,080.0,070.0,462.000,465.837,,5.6203,,5.6261,,5.6232,,,,34.1909,,34.1929,,,,,,0.4627,,0.4894,0.5546,2.0030,,,,20.123,168.9450,24.2403,,0.0334,,,, ,, , ,,,26.9644,,0.7258,83.4059,,,,3.6879E+00,,1.0000E-12,,,5.5871,,,,,,,,,,,,,,,,
CalCOFI,2101RL,062,,2101_062u,31-Jan-2021 11:48:53,31-Jan-2021 03:48:53,33.81796,-121.83256,080.0 070.0,080.0,070.0,461.000,464.827,,5.6218,,5.6262,,5.6240,,,,34.1909,,34.1929,,,,,,0.4552,,0.4815,0.5466,2.0500,,,,19.794,173.4531,23.8907,,0.0320,,,, ,, , ,,,26.9644,,0.7258,83.4059,,,,3.6947E+00,,1.0000E-12,,,5.5873,,,,,,,,,,,,,,,,
CalCOFI,2101RL,062,,2101_062u,31-Jan-2021 11:48:55,31-Jan-2021 03:48:55,33.81796,-121.83254,080.0 070.0,080.0,070.0,460.000,463.818,,5.6224,,5.6308,,5.6266,,,,34.1900,,34.1920,,,,,,0.4698,,0.4970,0.5621,2.3995,,,,20.431,203.6677,24.5675,,0.0326,,,, ,, , ,,,26.9631,,0.7258,83.4059,,,,3.6947E+00,,1.0000E-12,,,5.5920,,,,,,,,,,,,,,,,
CalCOFI,2101RL,062,,2101_062u,31-Jan-2021 11:48:57,31-Jan-2021 03:48:57,33.81796,-121.83254,080.0 070.0,080.0,070.0,459.000,462.808,,5.6244,,5.6307,,5.6276,,,,34.1907,,34.1927,,,,,,0.4700,,0.4972,0.5623,2.4818,,,,20.441,210.9425,24.5782,,0.0324,,,, ,, , ,,,26.9637,,0.7258,83.4059,,,,3.6947E+00,,1.0000E-12,,,5.5919,,,,,,,,,,,,,,,,
CalCOFI,2101RL,062,,2101_062u,31-Jan-2021 11:48:58,31-Jan-2021 03:48:58,33.81796,-121.83254,080.0 070.0,080.0,070.0,458.000,461.799,,5.6445,,5.6469,,5.6457,,,,34.1862,,34.1882,,,,,,0.4769,,0.5045,0.5696,2.3607,,,,20.737,199.8813,24.8927,,0.0333,,,, ,, , ,,,26.9581,,0.7258,83.4059,,,,3.6947E+00,,1.0000E-12,,,5.6082,,,,,,,,,,,,,,,,
CalCOFI,2101RL,062,,2101_062u,31-Jan-2021 11:48:58,31-Jan-2021 03:48:58,33.81795,-121.83254,080.0 070.0,080.0,070.0,457.000,460.790,,5.6439,,5.6462,,5.6451,,,,34.1854,,34.1874,,,,,,0.4926,,0.5212,0.5863,2.0800,,,,21.424,174.2393,25.6227,,0.0328,,,, ,, , ,,,26.9576,,0.7258,83.4059,,,,3.6947E+00,,1.0000E-12,,,5.6076,,,,,,,,,,,,,,,,
CalCOFI,2101RL,062,,2101_062u,31-Jan-2021 11:48:59,31-Jan-2021 03:48:59,33.81794,-121.83254,080.0 070.0,080.0,070.0,456.000,459.780,,5.6427,,5.6447,,5.6437,,,,34.1845,,34.1865,,,,,,0.4927,,0.5213,0.5864,1.7782,,,,21.425,147.5687,25.6237,,0.0324,,,, ,, , ,,,26.9571,,0.7258,83.4059,,,,3.6947E+00,,1.0000E-12,,,5.6061,,,,,,,,,,,,,,,,
CalCOFI,2101RL,062,,2101_062u,31-Jan-2021 11:49:00,31-Jan-2021 03:49:00,33.81794,-121.83254,080.0 070.0,080.0,070.0,455.000,458.771,,5.6388,,5.6404,,5.6396,,,,34.1816,,34.1836,,,,,,0.5000,,0.5291,0.5941,1.3893,,,,21.745,112.8683,25.9637,,0.0326,,,, ,, , ,,,26.9553,,0.7258,83.4059,,,,3.6947E+00,,1.0000E-12,,,5.6020,,,,,,,,,,,,,,,,
CalCOFI,2101RL,062,,2101_062u,31-Jan-2021 11:49:01,31-Jan-2021 03:49:01,33.81794,-121.83254,080.0 070.0,080.0,070.0,454.000,457.761,,5.6360,,5.6373,,5.6367,,,,34.1788,,34.1808,,,,,,0.5096,,0.5392,0.6043,0.9891,,,,22.163,77.0603,26.4079,,0.0323,,,, ,, , ,,,26.9534,,0.7258,83.4059,,,,3.6947E+00,,1.0000E-12,,,5.5990,,,,,,,,,,,,,,,,
CalCOFI,2101RL,062,,2101_062u,31-Jan-2021 11:49:02,31-Jan-2021 03:49:02,33.81794,-121.83254,080.0 070.0,080.0,070.0,453.000,456.752,,5.6485,,5.6479,,5.6482,,,,34.1760,,34.1780,,,,,,0.5149,,0.5449,0.6099,0.7456,,,,22.392,55.2992,26.6512,,0.0321,,,, ,, , ,,,26.9499,,0.7258,83.4059,,,,3.6947E+00,,1.0000E-12,,,5.6096,,,,,,,,,,,,,,,,
CalCOFI,2101RL,062,,2101_062u,31-Jan-2021 11:49:02,31-Jan-2021 03:49:02,33.81794,-121.83254,080.0 070.0,080.0,070.0,452.000,455.743,,5.6628,,5.6637,,5.6633,,,,34.1742,,34.1762,,,,,,0.5226,,0.5531,0.6181,0.6409,,,,22.729,45.6781,27.0093,,0.0324,,,, ,, , ,,,26.9465,,0.7262,83.3983,,,,3.6947E+00,,1.0000E-12,,,5.6255,,,,,,,,,,,,,,,,
CalCOFI,2101RL,062,,2101_062u,31-Jan-2021 11:49:04,31-Jan-2021 03:49:04,33.81794,-121.83254,080.0 070.0,080.0,070.0,451.000,454.733,,5.6637,,5.6656,,5.6647,,,,34.1728,,34.1748,,,,,,0.5195,,0.5498,0.6148,0.5848,,,,22.594,40.8731,26.8659,,0.0325,,,, ,, , ,,,26.9452,,0.7258,83.4057,,,,3.6947E+00,,1.0000E-12,,,5.6274,,,,,,,,,,,,,,,,
CalCOFI,2101RL,062,,2101_062u,31-Jan-2021 11:49:05,31-Jan-2021 03:49:05,33.81793,-121.83253,080.0 070.0,080.0,070.0,450.000,453.724,,5.6627,,5.6636,,5.6632,,,,34.1711,,34.1731,,,,,,0.5319,,0.5629,0.6280,0.5797,,,,23.131,39.8411,27.4365,,0.0315,,,, ,, , ,,,26.9441,,0.7258,83.4050,,,,3.6947E+00,,1.0000E-12,,,5.6255,,,,,,,,,,,,,,,,
CalCOFI,2101RL,062,,2101_062u,31-Jan-2021 11:49:06,31-Jan-2021 03:49:06,33.81792,-121.83252,080.0 070.0,080.0,070.0,449.000,452.714,,5.6564,,5.6620,,5.6592,,,,34.1716,,34.1736,,,,,,0.5320,,0.5630,0.6281,0.5560,,,,23.138,37.7427,27.4439,,0.0330,,,, ,, , ,,,26.9447,,0.7261,83.3987,,,,3.6947E+00,,1.0000E-12,,,5.6240,,,,,,,,,,,,,,,,
CalCOFI,2101RL,062,,2101_062u,31-Jan-2021 11:49:07,31-Jan-2021 03:49:07,33.81792,-121.83252,080.0 070.0,080.0,070.0,448.000,451.705,,5.6631,,5.6695,,5.6663,,,,34.1703,,34.1723,,,,,,0.5397,,0.5712,0.6362,0.5362,,,,23.471,35.6344,27.7977,,0.0327,,,, ,, , ,,,26.9428,,0.7258,83.4058,,,,3.6947E+00,,1.0000E-12,,,5.6316,,,,,,,,,,,,,,,,
CalCOFI,2101RL,062,,2101_062u,31-Jan-2021 11:49:08,31-Jan-2021 03:49:08,33.81792,-121.83252,080.0 070.0,080.0,070.0,447.000,450.696,,5.6721,,5.6756,,5.6739,,,,34.1694,,34.1714,,,,,,0.5364,,0.5677,0.6327,0.5198,,,,23.327,34.3433,27.6447,,0.0328,,,, ,, , ,,,26.9412,,0.7278,83.3648,,,,3.6947E+00,,1.0000E-12,,,5.6377,,,,,,,,,,,,,,,,